User: anonymous   Login
Location: *
(51.5000°N, 0.1100°W)
Time: 00:49:25
(UTC+00:00)
Language:

Meteor 1-23 Rocket - Orbit

View from above orbital plane
View from above orbital plane
View from above satellite
View from above satellite

Ground track
Ground track

The orbit data is extracted from the following two-line orbital elements,

1 08520U 75124B   24194.51791765  .00000181  00000-0  96520-4 0  9991
2 08520  81.2868 191.3365 0025785 233.1754 126.7052 14.09222815494543
Epoch (UTC): 12 July 2024 12:25:48
Eccentricity: 0.0025785
inclination: 81.2868°
perigee height: 843 km
apogee height: 881 km
right ascension of ascending node: 191.3365°
argument of perigee: 233.1754°
revolutions per day: 14.09222815
mean anomaly at epoch: 126.7052°
orbit number at epoch: 49454

The dashed part of the orbit path shows where the satellite is in the earth's shadow,  

DLR